User: anonymous   Login
Location: Unspecified
(0.0000°N, 0.0000°E)
Time: 17:51:15
(UTC+00:00)
Language:

HO-68 - Orbit

View from above orbital plane
View from above orbital plane
View from above satellite
View from above satellite

Ground track
Ground track

The orbit data is extracted from the following two-line orbital elements,

1 36122U 09072B   14304.09662377 -.00000043  00000-0  16471-5 0   751
2 36122 100.2319 351.7301 0006842 285.8681 127.5515 13.16319949234315
Epoch (UTC): 31 October 2014 02:19:08
Eccentricity: 0.0006842
inclination: 100.2319°
perigee height: 1193 km
apogee height: 1204 km
right ascension of ascending node: 351.7301°
argument of perigee: 285.8681°
revolutions per day: 13.16319949
mean anomaly at epoch: 127.5515°
orbit number at epoch: 23431

The dashed part of the orbit path shows where the satellite is in the earth's shadow,  

DLR